星链-37841(STARLINK-37841)

导读

STARLINK-37841(NORAD编号69951)是SpaceX星链低轨通信星座的成员卫星,属于第二代V2 Mini批次,于2026年初由猎鹰9号火箭发射入轨。该卫星运行于高度约550公里、倾角53度的近地轨道,轨道周期约96分钟,配备激光星间链路与相控阵通信天线,单星通信容量较初代提升4倍,支持直接与蜂窝移动终端互联互通,可提供低延迟宽带接入服务。截至2026年7月,该卫星在轨运行状态正常,是星链全球组网覆盖、支撑偏远地区及航空航海场景网络服务的组成部分,当前星链总在轨活跃卫星已接近1万颗。

基本信息
目录编号:
69951
目录名称:
STARLINK-37841
国际标识:
2026-157J
轨道中心:
EARTH
卫星名称:
星链-37841
卫星全名:
星链-37841(STARLINK-37841)
卫星状态:
在轨 (已飞行57 天)
发射日期:
2026-07-09 UTC
国别 :
美国 (US)
星等 :
--
轨道信息
数据来源 国际轨道数据
星历时间: 2026-09-03T20:31:37+0800
14小时前
查看轨道信息
半长轴: 6837.865km
偏心率: 0.0001143
轨道倾角: 53.161°
近地点辐角 89.246°
升交点赤经 53.290°
平近点角 270.868°
近地点: 458.946km
远地点: 460.51km
周期: 93.787分钟
每日圈数: 15.354017
详细信息
固有亮度:
5
最大亮度:
2.5
卫星平台:
Starlink V1.0
覆盖范围:
全球
运营商:
太空探索技术公司
运营商所在国:
美国
制造商(研发单位):
太空探索技术公司
制造商所在国:
美国
使用方式:
暂无
卫星简介
Starlink 计划是 SpaceX 推出的全球卫星互联网项目,通过发射低轨道卫星,为全球尤其是偏远地区提供高速、低延迟的互联网服务。自 2019 年起,Starlink 已部署数千颗卫星,旨在缩小全球数字鸿沟,推动互联网普及。该项目还为军事、航空等行业提供通信支持,带来广泛经济效益。
2D轨道图
3D轨道图
轨道高度分析图
轨道倾角分析图
轨道综合分析图
查看轨道综合分析图
交会数据列表
事件ID 空间交会对象 最接近时刻(TCA) 交会距离 交会风险概率(CRP) 交会风险指数(CRI) 操作
CDM_260828-132806-995006-995121
2026-08-28T
13:28:03+0000
0.302 km
远距离
9.851011E-5 中风险 0.75
CDM_260904-080505-389306-995121
2026-09-04T
08:05:19+0000
1.284 km
极远距离
9.928109E-6 低风险 0.55
CDM_260904-150705-389306-995121
2026-09-04T
15:07:09+0000
1.803 km
极远距离
3.344243E-6 低风险 0.45
CDM_260828-103905-479006-995121
2026-08-28T
10:39:40+0000
2.958 km
极远距离
1.105584E-6 低风险 0.36
CDM_260905-004406-584606-995121
2026-09-05T
00:44:25+0000
2.912 km
极远距离
9.361835E-7 极低风险 0.34
CDM_260904-231506-345806-995121
2026-09-04T
23:15:08+0000
2.860 km
极远距离
5.504651E-7 极低风险 0.3
CDM_260904-170006-663906-995121
2026-09-04T
17:00:32+0000
2.699 km
极远距离
5.426591E-7 极低风险 0.3
CDM_260828-115306-995006-995121
2026-08-28T
11:53:36+0000
1.753 km
极远距离
4.993168E-7 极低风险 0.29